Погода в Персе

Канада     48°31′19″N   64°12′59″W
темп.,
°C
ветер,
м/с
пор.,
м/с
влажн.,
%
обл.,
%
осадки,
мм/ч
давл.,
гПа
погр.,
м
10 мая, пн
пн1023:00+4з478996 0.0 1008163
02:00+4зсз37915 0.1 1008340
05:00+2зсз34885 0.0 1009111
08:00+5с467441 0.0 1010548
11:00+6с356794 0.0 1010620
14:00+5ссв3368100 0.0 1010402
17:00+6св356990 0.0 1011230
20:00+4сз23765 0.0 101232
11 мая, вт
вт1123:00+3з34835 0.0 101265
02:00+3зсз33785 0.0 101243
05:00+3зсз227658 0.0 101244
08:00+6ссз126832 0.0 1013277
11:00+6в337171 0.0 1013416
14:00+6всв337113 0.0 1013445
17:00+6вюв226950 0.0 1012298
20:00+5ссв117569 0.0 101224
12 мая, ср
ср1223:00+4ссв337753 0.0 101130
02:00+4ссв3379100 0.0 101054
05:00+4ссв5785100 0.0 1009235
08:00+5ссв688897 0.0 1010551
11:00+5ссв897424 0.0 1011817
14:00+6с8106546 0.0 1011878
17:00+7с6963100 0.0 1011643
20:00+6сз357299 0.0 101381
13 мая, чт
чт1323:00+4сз367817 0.0 1013120
02:00+4зсз357862 0.0 101393
05:00+3зсз358080 0.0 1013100
08:00+6ссз466454 0.0 1014503
11:00+8св2560100 0.0 1013870
14:00+7вюв556846 0.0 1013380
17:00+7ю5567100 0.0 1011416
20:00+6зюз348879 0.3 101153
14 мая, пт
пт1423:00+6з368692 0.0 1011138
02:00+6сз5108594 0.0 1011337
05:00+5зсз478074 0.0 1011268
08:00+7ссз586990 0.0 1012350
11:00+9с476025 0.0 1013711
14:00+10с585599 0.0 1014896
17:00+9зсз166197 0.0 1015719
20:00+7зсз36675 0.0 101687